Starlink 30514

operational
NORAD ID: 58028 Int'l Des: 2023-156 Owner: SPXS Country: US Constellation: starlink
LEOCIRCULAR

Über Starlink 30514

Beschreibung wird geladen...

Live-Position

3D-Globus wird geladen...

Nächste Überflüge

Höhenverlauf

Altitude vs Time

uPlot chart will show altitude changes over time

Zweizeiliger Elementsatz

1 58028U 23156A 25305.31196065 -.00000239 00000-0 40618-5 0 9995
2 58028 53.1611 314.4750 0001446 81.2260 278.8905 15.30193519116666
Epoch: 1. Nov. 2025 • Age: 29 hours

Aktueller Status

Höhe 493.8 km
Geschwindigkeit 7.62 km/s
Subsatellitenpunkt -50.86°S, 6.33°E
Startdatum 9. Okt. 2023
Alter 2 years
Typ internet

Technische Details

Klassifizierung Payload
Masse 730.00 kg
Trockenmasse 700.00 kg
Gesamtmasse 730.00 kg
Länge 0.30 m
Durchmesser 4.10 m
Spannweite 29.00 m
Form Box + pan
Hersteller SPXS
Bus-Typ Starlink V2M
Phasenstatus In Orbit
Besitzer/Staat SPXS/US

Große Konstellationen

Loading constellations...